Location: Tel Aviv
(32.0670°N, 34.7670°E)
Time: 03:53:39
(UTC+03:00)

AO-7 - Pass Details

Date: 21 September 2024
Orbit: 1440 x 1458 km, 102.0° (Epoch: 10 October)

Event Time Altitude Azimuth Distance (km) Brightness Sun altitude
Rises 04:54:02 0° 33° (NNE) 4,564 ? -20.7°
Reaches altitude 10° 04:57:40 10° 48° (NE) 3,580 ? -19.9°
Maximum altitude 05:03:53 23° 97° (E) 2,702 ? -18.6°
Drops below altitude 10° 05:10:03 10° 145° (SE) 3,558 ? -17.4°
Sets 05:13:35 0° 160° (SSE) 4,529 ? -16.6°
